[[[{"header":{"parameterUnit":"kt","parameterCategory":2,"dx":1,"dy":1,"la1":30.253999710083008,"la2":30.299108505249023,"lo1":-89.0895004272461,"lo2":-89.04439544677734,"nx":28,"ny":28,"refTime":"2022-09-21T21:00:00:Z","depth":"0","parameterNumber":2,"parameterNumberName":"U-component_of_CURRENTS"},"data":[0.4688,0.463,0.4668,0.4589,0.4633,0.4642,0.4747,0.4984,0.5335,0.5914,0.642,0.6913,0.7787,0.8665,0.9021,0.9085,0.8287,0.809,0.7699,0.8539,0.8563,0.8585,0.8422,0.8341,0.8338,0.6351,0.6335,0.6323,0.4837,0.4859,0.4883,0.4924,0.492,0.5052,0.5262,0.5366,0.5648,0.615,0.656,0.7481,0.8292,0.9073,0.9929,0.9783,0.9468,0.9521,0.8721,0.8558,0.9794,0.969,0.9877,0.9877,0.9877,0.9878,0.9878,0.9879,0.5093,0.507,0.514,0.5174,0.5244,0.5334,0.5395,0.5649,0.5913,0.6313,0.6735,0.725,0.8153,0.9316,0.967,1.0158,0.9783,1.0051,0.9812,0.9315,0.8986,1.0188,1.0655,1.0654,1.0654,1.0653,1.0653,0,0.5291,0.535,0.539,0.5441,0.5502,0.5597,0.5746,0.5854,0.6217,0.6471,0.6865,0.7214,0.807,0.8727,0.9494,0.9918,0.9557,1.0142,0.9705,0.9413,0.8741,0.8602,0.9788,1.0138,1.0135,1.0132,1.013,1.0129,0.5525,0.5526,0.5665,0.569,0.5751,0.5835,0.592,0.6194,0.6335,0.6767,0.6872,0.7378,0.7776,0.8617,0.9177,0.9779,0.9366,1.0042,0.9958,0.9463,0.9298,0.8757,0.8547,1.0091,1.0096,1.01,1.0103,0,0.5656,0.5775,0.5794,0.596,0.601,0.6025,0.6243,0.6337,0.6579,0.6798,0.6885,0.7318,0.7818,0.8236,0.8788,0.9014,0.9222,0.9582,0.9478,0.9603,0.9483,0.9238,0.889,0.8663,0.9967,0.9972,0.9976,0,0.5895,0.5888,0.6064,0.6069,0.6105,0.6283,0.6366,0.6522,0.6775,0.6932,0.7202,0.7396,0.782,0.8168,0.8457,0.8939,0.8964,0.9168,0.9312,0.9291,0.9298,0.8994,0.8743,0.9182,0.918,0.9177,0.9175,0,0.6032,0.6142,0.6159,0.6206,0.6392,0.6429,0.6528,0.6754,0.6876,0.7138,0.7253,0.7574,0.7756,0.807,0.8421,0.8376,0.8871,0.8916,0.9187,0.9196,0.9271,0.9279,0.914,0.9172,0.9171,0.917,0.9169,0,0.6229,0.6291,0.6308,0.6459,0.6486,0.6522,0.6698,0.6798,0.7047,0.717,0.7367,0.7542,0.7783,0.7814,0.8254,0.815,0.8359,0.8525,0.8548,0.8622,0.8755,0.9026,0.9264,0.8865,0.8821,0.8818,0.8814,0,0.6347,0.6385,0.6506,0.6531,0.6565,0.6733,0.6812,0.6951,0.7096,0.724,0.7437,0.7597,0.7652,0.7762,0.7914,0.8182,0.8318,0.8142,0.8578,0.8587,0.8661,0.8865,0.8888,0.9193,0.8766,0.8771,0.8775,0,0.6442,0.6608,0.6602,0.6645,0.6793,0.6833,0.6918,0.7051,0.7123,0.7252,0.7368,0.756,0.7665,0.7742,0.7885,0.8015,0.8246,0.808,0.809,0.8187,0.8673,0.8785,0.8828,0.8397,0.8401,0.8405,0.8737,0,0.6651,0.6686,0.6686,0.678,0.6843,0.6873,0.7011,0.7074,0.7154,0.7248,0.7416,0.7565,0.7716,0.7804,0.7843,0.8028,0.8054,0.8131,0.8095,0.8189,0.8324,0.8354,0.7984,0.7983,0.7982,0.7982,0,0,0.672,0.6759,0.6868,0.6899,0.6947,0.7068,0.7081,0.7151,0.7258,0.7315,0.7331,0.7571,0.7665,0.7838,0.7865,0.7942,0.8038,0.786,0.8134,0.815,0.8166,0.8298,0.8328,0.798,0.798,0.798,0.798,0,0.6803,0.6867,0.6865,0.6936,0.7031,0.7097,0.7112,0.7208,0.7253,0.7327,0.7419,0.7542,0.7648,0.7759,0.7827,0.7923,0.7992,0.7975,0.7906,0.8123,0.8141,0.8157,0.829,0.8317,0.7978,0.7978,0.7978,0,0.6897,0.697,0.6976,0.7076,0.7121,0.716,0.7222,0.7258,0.7295,0.7365,0.7406,0.751,0.7613,0.7716,0.7761,0.7739,0.7944,0.7853,0.7859,0.7752,0.7971,0.7991,0.8009,0.7776,0.7775,0.7774,0,0,0.6957,0.6985,0.7098,0.7098,0.7132,0.721,0.7236,0.7278,0.734,0.7356,0.7412,0.7483,0.7585,0.7622,0.7692,0.7766,0.7818,0.7827,0.7837,0.7845,0.7745,0.7961,0.7981,0.7771,0.7771,0.7771,0,0,0.6975,0.7091,0.7126,0.7137,0.721,0.7291,0.7286,0.7332,0.7376,0.7367,0.7434,0.7451,0.7546,0.7567,0.7521,0.7697,0.766,0.767,0.7679,0.7691,0.77,0.7562,0.7535,0,0,0,0,0,0.71,0.7085,0.7116,0.7131,0.7213,0.7283,0.7293,0.7335,0.7341,0.7346,0.7401,0.7413,0.757,0.7529,0.7542,0.7611,0.7731,0.7738,0.7745,0.7775,0.7788,0.7799,0,0,0,0,0,0,0.7107,0.7124,0.7118,0.7198,0.7218,0.7282,0.7301,0.7311,0.7341,0.7344,0.7404,0.7415,0.7452,0.7523,0.7535,0.7601,0.7531,0.7734,0.774,0.7745,0.7779,0.779,0.7799,0,0,0,0,0,0.7113,0.7127,0.7244,0.7198,0.7215,0.728,0.73,0.7309,0.7322,0.7395,0.7406,0.7355,0.745,0.7464,0.7531,0.7596,0.7523,0.7528,0.7738,0.7743,0.7747,0.7785,0,0,0,0,0,0,0.7117,0.7122,0.7248,0.7256,0.7198,0.7277,0.7289,0.7306,0.7372,0.7384,0.735,0.7351,0.745,0.7461,0.7471,0.7594,0.7516,0.7521,0.7524,0.7741,0.7745,0.7748,0,0,0,0,0,0,0.7116,0.7128,0.7252,0.7249,0.7256,0.7274,0.7284,0.7331,0.7372,0.732,0.7325,0.735,0.7447,0.7458,0.7466,0.7536,0.7511,0.7516,0.7519,0.7521,0.7744,0.7747,0,0,0,0,0,0,0.7122,0.7132,0.7246,0.7252,0.7258,0.7339,0.7316,0.7398,0.7364,0.7316,0.7364,0.7364,0.7445,0.7453,0.7463,0.7529,0.7534,0.7512,0.7514,0.7517,0.7518,0,0,0,0,0,0,0,0.7127,0.7047,0.7214,0.7254,0.726,0.7328,0.7329,0.733,0.7364,0.7364,0.7364,0.7364,0.7487,0.7492,0.7496,0.7523,0,0,0.7511,0.7513,0,0,0,0,0,0,0,0,0.7045,0.7047,0.7214,0.7217,0.7219,0.7328,0.7329,0.733,0.7364,0.7364,0.7364,0.7364,0.7488,0.7492,0.7496,0,0,0,0,0,0,0,0,0,0,0,0,0,0,0,0.7215,0.7216,0,0.7328,0.7329,0.733,0.7364,0.7364,0.7364,0.7364,0.7489,0.7492,0.7495,0,0,0,0,0,0,0,0,0,0,0,0,0,0,0,0,0,0,0,0,0,0,0,0,0,0,0,0,0,0,0,0,0,0,0,0,0,0,0,0,0,0,0,0,0,0,0,0,0,0,0,0,0,0,0,0,0,0,0,0,0,0,0,0,0,0,0,0,0]}],[{"header":{"parameterUnit":"kt","parameterCategory":2,"dx":1,"dy":1,"la1":30.253999710083008,"la2":30.299108505249023,"lo1":-89.0895004272461,"lo2":-89.04439544677734,"nx":28,"ny":28,"refTime":"2022-09-21T21:00:00:Z","depth":"0","parameterNumber":3,"parameterNumberName":"V-component_of_CURRENTS"},"data":[0.0641,0.0782,0.0859,0.1158,0.1313,0.1547,0.1693,0.197,0.2273,0.2832,0.3226,0.3444,0.3008,0.0704,-0.0965,-0.147,-0.2039,-0.219,-0.2545,-0.2035,-0.1996,-0.196,-0.1961,-0.2352,-0.2354,-0.3052,-0.3061,-0.3067,0.0578,0.0683,0.0847,0.105,0.123,0.1293,0.1526,0.1692,0.1948,0.2287,0.2446,0.2554,0.1876,0.1103,-0.0008,-0.0858,-0.1153,-0.135,-0.1467,-0.1544,-0.0781,-0.0729,-0.0863,-0.0863,-0.0863,-0.0862,-0.0862,-0.0862,0.0497,0.0589,0.0725,0.0886,0.1047,0.1234,0.1376,0.1539,0.1727,0.1962,0.1896,0.2096,0.1623,0.0928,0.033,-0.05,-0.0578,-0.0736,-0.1003,-0.1088,-0.1181,-0.0313,-0.0426,-0.0427,-0.0429,-0.043,-0.0431,0,0.0426,0.0476,0.0591,0.0759,0.0895,0.1056,0.1201,0.1296,0.1393,0.1496,0.1596,0.1602,0.1227,0.0953,0.0382,0.0026,-0.0574,-0.0384,-0.0733,-0.0835,-0.0931,-0.1095,-0.0243,-0.0298,-0.0299,-0.03,-0.0301,-0.0301,0.0329,0.0402,0.0568,0.0662,0.0731,0.0874,0.0987,0.1068,0.1157,0.1248,0.1299,0.1199,0.1172,0.0702,0.0285,-0.0151,-0.0469,-0.039,-0.0408,-0.0709,-0.1022,-0.1128,-0.122,-0.0312,-0.0311,-0.031,-0.0309,0,0.0285,0.0343,0.0484,0.0619,0.0667,0.0771,0.0925,0.102,0.1048,0.1141,0.1144,0.1083,0.0908,0.0624,0.0291,0.0033,-0.0416,-0.0372,-0.0193,-0.0239,-0.0709,-0.0941,-0.1289,-0.142,-0.0618,-0.062,-0.0621,0,0.0234,0.0326,0.0425,0.0491,0.0637,0.0691,0.0827,0.0865,0.0919,0.0995,0.0894,0.0923,0.065,0.0498,0.0243,-0.0046,-0.0036,-0.0293,-0.0364,-0.023,-0.0222,-0.0565,-0.0802,-0.031,-0.0309,-0.0307,-0.0306,0,0.0156,0.0285,0.0394,0.0436,0.0562,0.0625,0.0687,0.0734,0.079,0.0779,0.0806,0.0688,0.0645,0.0427,0.0197,0.0173,-0.0054,-0.0127,-0.0319,-0.0324,-0.0291,-0.0291,-0.0566,-0.0304,-0.0304,-0.0303,-0.0303,0,0.011,0.018,0.0308,0.0435,0.0464,0.0534,0.0631,0.0681,0.0685,0.0672,0.0628,0.0556,0.049,0.0393,0.0179,0.0222,0.0048,-0.007,-0.0082,-0.0161,-0.0253,-0.0289,-0.0224,-0.0537,-0.0253,-0.0251,-0.025,0,0.0027,0.0144,0.0171,0.0295,0.036,0.0368,0.0435,0.0461,0.0457,0.0476,0.0393,0.039,0.0293,0.0282,0.0215,0.0086,0.0009,0.0083,-0.021,-0.0218,-0.025,-0.0193,-0.0053,-0.0206,-0.0233,-0.0235,-0.0236,0,-0.0045,0.0042,0.0053,0.0109,0.0156,0.0197,0.0252,0.029,0.0329,0.0291,0.0323,0.0281,0.0219,0.019,0.0121,0.0069,0.0028,-0.0026,-0.0034,-0.0114,-0.0153,-0.017,-0.0184,-0.0034,-0.0034,-0.0035,-0.0223,0,-0.0079,-0.003,-0.0003,0.0053,0.0083,0.0127,0.0133,0.015,0.0134,0.0122,0.0117,0.0058,0.0024,0.0008,-0.0031,-0.0036,-0.0105,-0.0154,-0.0237,-0.0159,-0.0253,-0.0262,-0.0192,-0.0195,-0.0198,-0.02,0,0,-0.0166,-0.0107,-0.0121,-0.0074,-0.0043,-0.0079,-0.0019,-0.002,-0.0028,-0.0026,-0.006,-0.0109,-0.0167,-0.0163,-0.0122,-0.0159,-0.0234,-0.02,-0.0182,-0.0179,-0.0178,-0.0262,-0.0269,-0.0204,-0.0205,-0.0206,-0.0207,0,-0.0183,-0.0178,-0.0136,-0.0118,-0.0104,-0.0102,-0.0095,-0.0098,-0.0104,-0.0085,-0.0146,-0.0166,-0.0224,-0.0248,-0.0273,-0.0193,-0.0333,-0.0219,-0.0128,-0.0201,-0.0195,-0.019,-0.0271,-0.0275,-0.0213,-0.0213,-0.0212,0,-0.0235,-0.0225,-0.0207,-0.0183,-0.0183,-0.0143,-0.0201,-0.0181,-0.015,-0.0253,-0.0236,-0.0287,-0.0352,-0.0347,-0.0361,-0.0399,-0.0423,-0.0405,-0.0392,-0.0393,-0.0474,-0.0465,-0.0457,-0.0564,-0.0565,-0.0566,0,0,-0.0253,-0.0223,-0.022,-0.0189,-0.0184,-0.0199,-0.0195,-0.0204,-0.0221,-0.023,-0.0285,-0.0335,-0.0364,-0.0393,-0.0432,-0.0442,-0.052,-0.0443,-0.0426,-0.0412,-0.0405,-0.0481,-0.0472,-0.0568,-0.0568,-0.0568,0,0,-0.0267,-0.0252,-0.026,-0.0224,-0.0216,-0.0224,-0.0211,-0.0231,-0.0248,-0.0258,-0.0343,-0.0363,-0.0377,-0.0436,-0.0458,-0.0466,-0.0539,-0.0537,-0.0423,-0.0404,-0.0388,-0.0365,-0.0564,0,0,0,0,0,-0.0284,-0.0251,-0.0257,-0.0252,-0.0236,-0.0217,-0.0216,-0.0236,-0.0266,-0.0251,-0.0291,-0.0375,-0.0446,-0.0467,-0.0489,-0.0473,-0.0603,-0.0597,-0.0591,-0.0448,-0.0427,-0.0409,0,0,0,0,0,0,-0.0282,-0.0276,-0.0258,-0.0263,-0.026,-0.0218,-0.0261,-0.0265,-0.0268,-0.0273,-0.0358,-0.0378,-0.0434,-0.0465,-0.0482,-0.0465,-0.0558,-0.0601,-0.0596,-0.0591,-0.0441,-0.0423,-0.0408,0,0,0,0,0,-0.0281,-0.0276,-0.0242,-0.0264,-0.0261,-0.0278,-0.0262,-0.0266,-0.0272,-0.035,-0.0368,-0.0288,-0.0431,-0.0452,-0.0476,-0.0454,-0.0547,-0.0553,-0.0598,-0.0593,-0.059,-0.0432,0,0,0,0,0,0,-0.028,-0.0284,-0.0242,-0.0243,-0.0278,-0.0281,-0.0281,-0.0267,-0.0353,-0.0365,-0.0285,-0.0289,-0.0429,-0.0446,-0.0461,-0.0444,-0.0538,-0.0544,-0.0548,-0.0594,-0.0591,-0.0588,0,0,0,0,0,0,-0.0287,-0.0284,-0.0243,-0.0258,-0.0261,-0.0284,-0.0284,-0.0342,-0.0357,-0.0285,-0.0288,-0.0287,-0.0442,-0.0441,-0.0454,-0.0541,-0.0531,-0.0537,-0.0541,-0.0543,-0.0592,-0.0589,0,0,0,0,0,0,-0.0287,-0.0284,-0.0259,-0.026,-0.0263,-0.027,-0.0342,-0.0348,-0.0294,-0.0284,-0.0297,-0.0299,-0.044,-0.0451,-0.0448,-0.0529,-0.0538,-0.0531,-0.0535,-0.0538,-0.054,0,0,0,0,0,0,0,-0.0286,-0.0295,-0.0238,-0.0262,-0.0264,-0.0246,-0.0247,-0.0247,-0.0294,-0.0295,-0.0297,-0.0299,-0.0497,-0.0504,-0.051,-0.052,0,0,-0.053,-0.0533,0,0,0,0,0,0,0,0,-0.0297,-0.0296,-0.0238,-0.0238,-0.0238,-0.0246,-0.0247,-0.0247,-0.0294,-0.0295,-0.0297,-0.0298,-0.0499,-0.0504,-0.0509,0,0,0,0,0,0,0,0,0,0,0,0,0,0,0,-0.0238,-0.0238,0,-0.0246,-0.0247,-0.0247,-0.0294,-0.0295,-0.0296,-0.0297,-0.05,-0.0505,-0.0509,0,0,0,0,0,0,0,0,0,0,0,0,0,0,0,0,0,0,0,0,0,0,0,0,0,0,0,0,0,0,0,0,0,0,0,0,0,0,0,0,0,0,0,0,0,0,0,0,0,0,0,0,0,0,0,0,0,0,0,0,0,0,0,0,0,0,0,0,0]}]],[[{"header":{"parameterUnit":"kt","parameterCategory":2,"dx":1,"dy":1,"la1":30.253999710083008,"la2":30.299108505249023,"lo1":-89.0895004272461,"lo2":-89.04439544677734,"nx":28,"ny":28,"refTime":"2022-09-21T21:00:00:Z","depth":"2","parameterNumber":2,"parameterNumberName":"U-component_of_CURRENTS"},"data":[0.4534,0.4417,0.4405,0.42,0.4178,0.4078,0.4099,0.4123,0.4078,0.3835,0.3607,0.3718,0.3777,0.3055,0.3058,0.2975,0.347,0.2858,0.4429,0.4348,0.4462,0.4835,0.4342,0,0,0,0,0,0.4667,0.4649,0.4622,0.4571,0.4493,0.462,0.4698,0.4667,0.4758,0.4812,0.4997,0.4313,0.4186,0.4334,0.399,0.3979,0.3909,0.4011,0.386,0.3987,0.4102,0.3703,0.2844,0.2842,0.2839,0.2837,0,0,0.4893,0.4865,0.4853,0.4836,0.4855,0.4872,0.4868,0.5025,0.516,0.5317,0.5718,0.5709,0.5583,0.5335,0.5374,0.5379,0.5756,0.5516,0.5559,0.562,0.5296,0.5111,0.4858,0.4867,0.4876,0.4883,0.489,0,0.5033,0.5062,0.506,0.5059,0.5085,0.513,0.5225,0.528,0.5572,0.5748,0.6051,0.6256,0.6516,0.6325,0.6466,0.6449,0.6584,0.6383,0.7592,0.5766,0.559,0.5563,0.5599,0.548,0.5494,0.5504,0.5511,0.5517,0.5187,0.5168,0.5244,0.5237,0.5274,0.5342,0.5387,0.5614,0.5704,0.6086,0.6151,0.6577,0.6795,0.7205,0.7118,0.7281,0.7649,0.6701,0.6363,0.728,0.7256,0.7235,0.7213,0.5664,0.5645,0.563,0.5617,0,0.5262,0.5315,0.5318,0.542,0.5452,0.5484,0.5625,0.5695,0.5923,0.6084,0.6175,0.6545,0.6912,0.717,0.7548,0.7432,0.7611,0.7609,0.6831,0.6722,0.7269,0.7238,0.7469,0.7461,0.7455,0.7449,0.7445,0,0.5396,0.5393,0.5481,0.5471,0.5516,0.5623,0.5708,0.5845,0.6027,0.6144,0.637,0.6527,0.6821,0.706,0.7219,0.7352,0.7557,0.7293,0.729,0.663,0.6547,0.7355,0.732,0.7621,0.7618,0.7616,0.7613,0,0.5472,0.5526,0.5527,0.5546,0.5642,0.5686,0.5755,0.5921,0.5998,0.6247,0.6344,0.6584,0.6724,0.6919,0.7132,0.7062,0.7474,0.7378,0.7237,0.7221,0.6604,0.6518,0.761,0.761,0.7609,0.7608,0.7607,0,0.5572,0.5587,0.5594,0.5668,0.5684,0.5717,0.5841,0.591,0.6083,0.6183,0.6327,0.6424,0.6621,0.6587,0.6911,0.6808,0.6937,0.7032,0.7046,0.6733,0.6635,0.6227,0.626,0.7176,0.7171,0.7167,0.7163,0,0.5626,0.563,0.5667,0.5689,0.5691,0.5769,0.5836,0.5917,0.6007,0.6112,0.6214,0.6337,0.6344,0.6423,0.6523,0.6677,0.6801,0.6618,0.6866,0.6874,0.6588,0.6754,0.6002,0.6228,0.7107,0.7113,0.7117,0,0.5645,0.5685,0.5686,0.5697,0.5752,0.576,0.5836,0.5897,0.5967,0.6037,0.6129,0.6247,0.6307,0.633,0.6367,0.646,0.6708,0.6465,0.6468,0.6606,0.7018,0.6716,0.6726,0.6703,0.6709,0.6713,0.7072,0,0.5686,0.5696,0.5705,0.5714,0.5744,0.5763,0.5799,0.5851,0.589,0.5918,0.6054,0.6095,0.6161,0.6198,0.6194,0.636,0.6382,0.6327,0.624,0.6373,0.6512,0.6548,0.6088,0.6086,0.6084,0.6082,0,0,0.5695,0.5679,0.5692,0.5701,0.5713,0.5743,0.5752,0.5779,0.5803,0.5841,0.584,0.5961,0.5975,0.6072,0.6123,0.6115,0.6197,0.6074,0.629,0.6313,0.6335,0.6474,0.651,0.6078,0.6077,0.6077,0.6076,0,0.5672,0.5688,0.5683,0.5698,0.5719,0.5711,0.5737,0.5736,0.5761,0.5804,0.582,0.59,0.5916,0.5946,0.5959,0.6077,0.6096,0.6098,0.6152,0.6268,0.6294,0.6317,0.6458,0.6493,0.6071,0.6071,0.6071,0,0.5661,0.5651,0.5648,0.5651,0.5652,0.5659,0.5646,0.5672,0.5692,0.5662,0.5707,0.5752,0.5756,0.5818,0.5851,0.5791,0.5987,0.5876,0.5888,0.5891,0.6006,0.6036,0.6062,0.5725,0.5724,0.5724,0,0,0.5648,0.5644,0.5631,0.5641,0.565,0.5639,0.5646,0.5645,0.5649,0.5661,0.5662,0.5676,0.5722,0.5727,0.5757,0.5789,0.5829,0.5837,0.5853,0.5866,0.5878,0.5995,0.6024,0.572,0.572,0.572,0,0,0.5632,0.5601,0.5604,0.5606,0.5617,0.5579,0.5599,0.56,0.5622,0.5635,0.5608,0.5611,0.5703,0.5662,0.5622,0.5727,0.5657,0.5665,0.5747,0.5766,0.5782,0.5792,0.556,0,0,0,0,0,0.5593,0.5602,0.5605,0.5604,0.5575,0.5577,0.5574,0.5567,0.5571,0.5597,0.5606,0.5576,0.5638,0.5601,0.5601,0.5667,0.5677,0.5685,0.5692,0.581,0.5831,0.5849,0,0,0,0,0,0,0.5592,0.5588,0.5605,0.5564,0.5559,0.5574,0.5539,0.5536,0.5569,0.5571,0.5572,0.5573,0.5542,0.5598,0.5599,0.5664,0.556,0.568,0.5687,0.5692,0.5817,0.5834,0.5849,0,0,0,0,0,0.5591,0.5588,0.5549,0.5564,0.5559,0.555,0.5539,0.5537,0.5569,0.5537,0.5539,0.5574,0.5541,0.5544,0.5598,0.5665,0.5559,0.5559,0.5684,0.5689,0.5694,0.5825,0,0,0,0,0,0,0.559,0.5574,0.5548,0.5546,0.5576,0.5551,0.5547,0.5538,0.5535,0.5537,0.5533,0.5534,0.554,0.5542,0.5544,0.5669,0.5558,0.5559,0.5559,0.5688,0.5692,0.5696,0,0,0,0,0,0,0.5577,0.5573,0.5546,0.5561,0.5561,0.5552,0.5549,0.555,0.5537,0.553,0.5531,0.5534,0.5558,0.5541,0.5543,0.5542,0.5558,0.5558,0.5559,0.5559,0.5692,0.5695,0,0,0,0,0,0,0.5575,0.5571,0.5561,0.5561,0.5561,0.5535,0.5554,0.5536,0.5521,0.5531,0.5523,0.5525,0.5558,0.5558,0.5542,0.554,0.5541,0.5558,0.5558,0.5559,0.5559,0,0,0,0,0,0,0,0.5573,0.56,0.5565,0.5561,0.556,0.553,0.5529,0.5528,0.5521,0.5522,0.5523,0.5524,0.5556,0.5557,0.5557,0.5538,0,0,0.5558,0.5558,0,0,0,0,0,0,0,0,0.5601,0.56,0.5565,0.5565,0.5565,0.553,0.5529,0.5528,0.5521,0.5522,0.5523,0.5524,0.5556,0.5557,0.5557,0,0,0,0,0,0,0,0,0,0,0,0,0,0,0,0.5565,0.5565,0,0.553,0.5529,0.5528,0.5521,0.5522,0.5523,0.5523,0.5557,0.5557,0.5557,0,0,0,0,0,0,0,0,0,0,0,0,0,0,0,0,0,0,0,0,0,0,0,0,0,0,0,0,0,0,0,0,0,0,0,0,0,0,0,0,0,0,0,0,0,0,0,0,0,0,0,0,0,0,0,0,0,0,0,0,0,0,0,0,0,0,0,0,0]}],[{"header":{"parameterUnit":"kt","parameterCategory":2,"dx":1,"dy":1,"la1":30.253999710083008,"la2":30.299108505249023,"lo1":-89.0895004272461,"lo2":-89.04439544677734,"nx":28,"ny":28,"refTime":"2022-09-21T21:00:00:Z","depth":"2","parameterNumber":3,"parameterNumberName":"V-component_of_CURRENTS"},"data":[0.1083,0.1208,0.1286,0.1588,0.1735,0.2019,0.2212,0.2596,0.2687,0.2802,0.2587,0.2473,0.1359,0.0559,-0.0105,-0.0548,-0.0559,-0.0594,-0.0339,-0.0308,-0.0289,-0.0749,-0.0718,0,0,0,0,0,0.1036,0.1125,0.1266,0.1456,0.1638,0.1702,0.1995,0.2224,0.2594,0.2666,0.2903,0.208,0.1528,0.074,-0.0226,-0.0734,-0.0787,-0.0834,-0.088,-0.0867,-0.0856,-0.0846,-0.098,-0.0981,-0.0982,-0.0983,0,0,0.0969,0.1042,0.1148,0.1296,0.1445,0.1659,0.1825,0.2036,0.2291,0.256,0.256,0.2513,0.1718,0.0784,0.0254,-0.035,-0.034,-0.0653,-0.065,-0.0646,-0.0625,-0.055,-0.07,-0.0699,-0.0698,-0.0697,-0.0696,0,0.0915,0.0946,0.1034,0.118,0.1302,0.1463,0.1618,0.1735,0.1861,0.2006,0.2184,0.2219,0.1736,0.1189,0.0501,0.0139,-0.0318,-0.0436,-0.0274,-0.0614,-0.0537,-0.0608,-0.0596,-0.0693,-0.0692,-0.0691,-0.069,-0.069,0.0829,0.0889,0.1013,0.1091,0.1143,0.1276,0.1377,0.1459,0.1563,0.169,0.1755,0.1657,0.1656,0.1144,0.0528,0.0015,-0.005,-0.0396,-0.0544,-0.0348,-0.0421,-0.0414,-0.0408,-0.0677,-0.0679,-0.068,-0.0681,0,0.0786,0.0825,0.0939,0.1034,0.1074,0.1164,0.1309,0.139,0.1419,0.1523,0.1523,0.144,0.1262,0.0901,0.0492,0.0181,-0.0148,-0.0274,-0.0268,-0.0346,-0.0412,-0.0405,-0.0477,-0.0477,-0.0477,-0.0477,-0.0477,0,0.0727,0.0803,0.087,0.0923,0.1041,0.1079,0.1192,0.1201,0.1236,0.1314,0.1168,0.1201,0.0823,0.0649,0.0332,0.0029,0.0017,-0.0296,-0.0377,-0.0444,-0.0447,-0.0445,-0.0449,-0.0398,-0.0397,-0.0397,-0.0396,0,0.0646,0.0746,0.0836,0.0868,0.0945,0.0991,0.103,0.1028,0.1066,0.1025,0.1049,0.087,0.0802,0.0531,0.0238,0.0185,-0.0044,-0.0188,-0.0356,-0.0355,-0.0521,-0.0532,-0.0395,-0.0395,-0.0395,-0.0395,-0.0394,0,0.0591,0.0642,0.0748,0.0842,0.0861,0.0903,0.0948,0.0968,0.0915,0.0885,0.0808,0.0687,0.0564,0.0424,0.0154,0.0201,-0.0003,-0.0161,-0.0171,-0.0228,-0.0348,-0.0466,-0.0443,-0.0309,-0.0308,-0.0307,-0.0307,0,0.0512,0.0602,0.0614,0.0706,0.0753,0.0719,0.0748,0.0725,0.0684,0.0668,0.0511,0.0454,0.0318,0.0275,0.0169,-0.0027,-0.0109,-0.0057,-0.0349,-0.0355,-0.0314,-0.0262,-0.0344,-0.0424,-0.0294,-0.0296,-0.0297,0,0.0444,0.0497,0.0502,0.0546,0.0544,0.0556,0.0569,0.0555,0.0569,0.0476,0.0485,0.0318,0.0241,0.0158,0.0027,-0.0061,-0.0094,-0.0164,-0.0175,-0.0163,-0.027,-0.0248,-0.0255,-0.02,-0.0201,-0.0202,-0.0287,0,0.0415,0.044,0.0455,0.0471,0.0474,0.0487,0.0444,0.0426,0.0378,0.0331,0.026,0.0098,-0.0008,-0.0058,-0.0152,-0.0197,-0.0229,-0.033,-0.0389,-0.0342,-0.0388,-0.0394,-0.0371,-0.0375,-0.0378,-0.0381,0,0,0.0341,0.0372,0.0323,0.0352,0.036,0.0272,0.0311,0.0267,0.0181,0.0161,0.0114,-0.0067,-0.0192,-0.0271,-0.0259,-0.0341,-0.0392,-0.0317,-0.0368,-0.0366,-0.0364,-0.0404,-0.0406,-0.0386,-0.0387,-0.0388,-0.0389,0,0.0326,0.0299,0.0323,0.0312,0.0277,0.024,0.0242,0.0182,0.0148,0.0099,-0.0016,-0.0106,-0.0236,-0.0327,-0.0394,-0.0376,-0.0465,-0.0401,-0.0282,-0.0391,-0.0384,-0.0379,-0.0415,-0.0416,-0.0397,-0.0396,-0.0396,0,0.0281,0.026,0.026,0.0229,0.0191,0.0199,0.0118,0.0095,0.0097,-0.0066,-0.0101,-0.0207,-0.0352,-0.0409,-0.045,-0.0485,-0.0539,-0.053,-0.0518,-0.0494,-0.0611,-0.0603,-0.0596,-0.0682,-0.0682,-0.0682,0,0,0.0267,0.027,0.0219,0.0218,0.0206,0.0136,0.0112,0.0072,-0.0008,-0.0046,-0.0137,-0.025,-0.0343,-0.04,-0.0493,-0.0553,-0.0624,-0.0555,-0.0541,-0.0529,-0.0499,-0.0612,-0.0605,-0.0682,-0.0682,-0.0682,0,0,0.0249,0.0209,0.0184,0.0184,0.0147,0.0072,0.0061,0.0018,-0.0068,-0.0086,-0.0214,-0.0249,-0.0321,-0.0414,-0.0398,-0.0492,-0.0562,-0.0568,-0.0399,-0.0384,-0.0372,-0.0304,-0.0477,0,0,0,0,0,0.0206,0.0221,0.02,0.0191,0.0123,0.009,0.0076,0.0008,-0.0027,-0.0029,-0.0141,-0.0201,-0.0431,-0.042,-0.0449,-0.0418,-0.0679,-0.068,-0.068,-0.048,-0.0463,-0.0449,0,0,0,0,0,0,0.0202,0.0194,0.0198,0.013,0.0113,0.0088,0.0025,0.0006,-0.0029,-0.0038,-0.0179,-0.0206,-0.0293,-0.0411,-0.0436,-0.0404,-0.0469,-0.068,-0.068,-0.068,-0.0474,-0.046,-0.0448,0,0,0,0,0,0.0199,0.0193,0.0108,0.0128,0.0113,0.0028,0.0024,0.0008,-0.0025,-0.0156,-0.0183,-0.0073,-0.0289,-0.0319,-0.0427,-0.0389,-0.0452,-0.0461,-0.068,-0.068,-0.0681,-0.0467,0,0,0,0,0,0,0.0196,0.0166,0.0103,0.0094,0.0121,0.0027,0.0013,0.001,-0.0144,-0.0167,-0.0057,-0.0063,-0.0287,-0.0311,-0.0334,-0.0376,-0.0438,-0.0448,-0.0453,-0.068,-0.068,-0.0681,0,0,0,0,0,0,0.0169,0.016,0.0098,0.0094,0.0084,0.0027,0.0015,-0.0076,-0.0148,-0.0039,-0.0047,-0.0059,-0.0279,-0.0305,-0.0323,-0.0461,-0.0428,-0.0437,-0.0443,-0.0447,-0.068,-0.0681,0,0,0,0,0,0,0.0163,0.0155,0.0095,0.0088,0.0079,-0.0023,-0.006,-0.0143,-0.0096,-0.0034,-0.01,-0.0101,-0.0273,-0.0291,-0.0315,-0.0444,-0.0457,-0.0428,-0.0434,-0.0438,-0.0441,0,0,0,0,0,0,0,0.0159,0.0236,0.0156,0.0083,0.0075,0.0017,0.0014,0.0012,-0.0097,-0.0098,-0.0099,-0.0101,-0.0377,-0.0387,-0.0396,-0.0431,0,0,-0.0427,-0.0431,0,0,0,0,0,0,0,0,0.0237,0.0236,0.0155,0.0154,0.0152,0.0017,0.0014,0.0012,-0.0097,-0.0098,-0.0099,-0.01,-0.0379,-0.0387,-0.0395,0,0,0,0,0,0,0,0,0,0,0,0,0,0,0,0.0155,0.0154,0,0.0016,0.0015,0.0013,-0.0097,-0.0098,-0.0099,-0.01,-0.0382,-0.0388,-0.0395,0,0,0,0,0,0,0,0,0,0,0,0,0,0,0,0,0,0,0,0,0,0,0,0,0,0,0,0,0,0,0,0,0,0,0,0,0,0,0,0,0,0,0,0,0,0,0,0,0,0,0,0,0,0,0,0,0,0,0,0,0,0,0,0,0,0,0,0,0]}]],[[{"header":{"parameterUnit":"kt","parameterCategory":2,"dx":1,"dy":1,"la1":30.253999710083008,"la2":30.299108505249023,"lo1":-89.0895004272461,"lo2":-89.04439544677734,"nx":28,"ny":28,"refTime":"2022-09-21T21:00:00:Z","depth":"4","parameterNumber":2,"parameterNumberName":"U-component_of_CURRENTS"},"data":[0.0884,0.1008,0.1051,0.124,0.1394,0.1638,0.1712,0.1726,0.1558,0.1694,0.1543,0.1863,0.1632,0.1755,0.1495,0.1499,0.1692,0.1546,0.1544,0.1926,0.1951,0.1974,0.1977,0,0,0,0,0,0.095,0.0972,0.117,0.14,0.1718,0.1933,0.2071,0.2116,0.2214,0.1982,0.2101,0.1843,0.1694,0.1593,0.1486,0.1613,0.1721,0.1493,0.1815,0.1942,0.197,0.1963,0,0,0,0,0,0,0.1015,0.1065,0.1293,0.1589,0.1936,0.2021,0.216,0.2175,0.2255,0.2366,0.2154,0.2106,0.2207,0.2027,0.1776,0.1732,0.1753,0.1827,0.1859,0.1886,0.1858,0.1849,0.1478,0,0,0,0,0,0.1054,0.1241,0.1359,0.1711,0.203,0.2231,0.2554,0.25,0.2706,0.2978,0.2686,0.2614,0.2396,0.2231,0.2146,0.1907,0.2277,0.2099,0.2116,0.2225,0.2245,0.2192,0.2214,0.2076,0.208,0.2082,0.2083,0,0.1168,0.124,0.1603,0.1773,0.1999,0.2367,0.2616,0.2943,0.2979,0.3089,0.3019,0.3021,0.2979,0.2508,0.2465,0.2236,0.217,0.217,0.2287,0.2292,0.2228,0.2244,0.2258,0.2106,0.2104,0.2102,0.21,0,0.1214,0.1383,0.1518,0.1857,0.2029,0.2269,0.2698,0.2847,0.3147,0.3232,0.3334,0.3386,0.3195,0.3155,0.2911,0.2812,0.2529,0.2382,0.2664,0.2599,0.2295,0.23,0.2143,0.2135,0.2128,0.2122,0.2117,0,0.1312,0.1423,0.1696,0.177,0.2048,0.2236,0.2567,0.281,0.3065,0.3139,0.3382,0.3306,0.3417,0.3272,0.3097,0.2799,0.2882,0.2607,0.2524,0.2793,0.2796,0.2719,0.2714,0.2773,0.2774,0.2775,0.2775,0,0.1327,0.1505,0.1654,0.1713,0.1955,0.2177,0.2431,0.2735,0.2882,0.3168,0.3262,0.3317,0.3389,0.3263,0.3083,0.313,0.2873,0.2887,0.2588,0.2573,0.2722,0.2716,0.2776,0.2777,0.2777,0.2777,0.2777,0,0.1374,0.1441,0.1616,0.1773,0.1843,0.2071,0.2398,0.2606,0.2886,0.3024,0.3154,0.3211,0.3247,0.3213,0.3089,0.3134,0.3024,0.2919,0.291,0.2662,0.255,0.2678,0.2772,0.2773,0.2773,0.2774,0.2775,0,0.1324,0.1448,0.1536,0.1726,0.1785,0.2003,0.2223,0.2461,0.2668,0.2879,0.2932,0.3078,0.3062,0.3122,0.3082,0.2967,0.2932,0.2971,0.2768,0.2762,0.2564,0.2598,0.2898,0.2783,0.2782,0.2781,0.2781,0,0.1264,0.1384,0.1447,0.1489,0.1735,0.1819,0.2093,0.2311,0.2483,0.2741,0.2884,0.2961,0.3008,0.3,0.2962,0.2926,0.2934,0.2888,0.2881,0.2833,0.2836,0.2633,0.2608,0.2898,0.2898,0.2898,0.2787,0,0.1243,0.1333,0.1383,0.1521,0.1619,0.177,0.1956,0.217,0.2396,0.2502,0.2702,0.2737,0.2817,0.2823,0.2793,0.2826,0.2798,0.2739,0.2668,0.2752,0.2691,0.2687,0.2691,0.2688,0.2685,0.2683,0,0,0.1191,0.1256,0.1301,0.1368,0.1461,0.1642,0.1756,0.1882,0.2143,0.2245,0.2335,0.2516,0.2558,0.258,0.2626,0.2648,0.262,0.2689,0.2722,0.2727,0.2731,0.2678,0.2677,0.2679,0.2678,0.2677,0.2677,0,0.1159,0.1225,0.1269,0.1332,0.1488,0.1558,0.1652,0.1816,0.1935,0.2183,0.2193,0.2302,0.25,0.246,0.2455,0.2612,0.2558,0.2654,0.2762,0.2703,0.2711,0.2718,0.2668,0.2669,0.2671,0.2671,0.2671,0,0.1117,0.1166,0.1196,0.1283,0.134,0.144,0.1449,0.161,0.1746,0.1768,0.206,0.2101,0.2107,0.2248,0.2344,0.2311,0.2478,0.248,0.2492,0.2499,0.2433,0.2444,0.2454,0.2322,0.2322,0.2321,0,0,0.1095,0.1135,0.1215,0.1283,0.1331,0.1407,0.1464,0.155,0.1668,0.1732,0.1882,0.2002,0.2051,0.2158,0.2223,0.2384,0.2321,0.2442,0.2458,0.2472,0.2487,0.2426,0.2437,0.2318,0.2318,0.2318,0,0,0.1082,0.1155,0.1189,0.1262,0.1334,0.1361,0.1425,0.1499,0.163,0.1725,0.1779,0.1821,0.2037,0.2056,0.2014,0.2206,0.2129,0.2143,0.2223,0.2244,0.2259,0.2255,0.1957,0,0,0,0,0,0.1095,0.114,0.117,0.1196,0.1271,0.1335,0.1342,0.1412,0.15,0.1538,0.1688,0.1698,0.201,0.1974,0.2007,0.2094,0.2282,0.2288,0.2295,0.2433,0.2455,0.2473,0,0,0,0,0,0,0.1105,0.1128,0.1171,0.1201,0.1223,0.133,0.1335,0.1348,0.1496,0.151,0.1662,0.1694,0.1698,0.1959,0.1989,0.2071,0.1947,0.2285,0.229,0.2295,0.2441,0.2458,0.2473,0,0,0,0,0,0.1114,0.1133,0.1253,0.1198,0.1217,0.1319,0.1336,0.1349,0.1467,0.1543,0.1576,0.155,0.1691,0.1732,0.1977,0.2056,0.1927,0.1938,0.2288,0.2292,0.2296,0.2449,0,0,0,0,0,0,0.112,0.1081,0.1256,0.1264,0.1247,0.1316,0.1331,0.1349,0.1495,0.1527,0.1422,0.143,0.1685,0.1718,0.1749,0.205,0.191,0.1921,0.1928,0.2291,0.2295,0.2298,0,0,0,0,0,0,0.1075,0.1085,0.1259,0.1315,0.1328,0.1314,0.1327,0.1429,0.1502,0.1361,0.1374,0.1426,0.1743,0.1708,0.1733,0.1877,0.1898,0.1908,0.1916,0.192,0.2294,0.2297,0,0,0,0,0,0,0.108,0.1089,0.1311,0.1321,0.1332,0.1397,0.1411,0.153,0.1414,0.1356,0.1427,0.1433,0.1738,0.1758,0.1721,0.1853,0.1871,0.1898,0.1905,0.191,0.1914,0,0,0,0,0,0,0,0.1084,0.1014,0.1249,0.1326,0.1336,0.1343,0.1341,0.1339,0.1415,0.142,0.1425,0.143,0.1837,0.1849,0.186,0.1833,0,0,0.1897,0.1902,0,0,0,0,0,0,0,0,0.1011,0.1013,0.125,0.1254,0.1257,0.1342,0.1341,0.134,0.1416,0.142,0.1424,0.1428,0.184,0.185,0.1859,0,0,0,0,0,0,0,0,0,0,0,0,0,0,0,0.125,0.1253,0,0.1342,0.1341,0.134,0.1417,0.142,0.1423,0.1427,0.1843,0.1851,0.1858,0,0,0,0,0,0,0,0,0,0,0,0,0,0,0,0,0,0,0,0,0,0,0,0,0,0,0,0,0,0,0,0,0,0,0,0,0,0,0,0,0,0,0,0,0,0,0,0,0,0,0,0,0,0,0,0,0,0,0,0,0,0,0,0,0,0,0,0,0]}],[{"header":{"parameterUnit":"kt","parameterCategory":2,"dx":1,"dy":1,"la1":30.253999710083008,"la2":30.299108505249023,"lo1":-89.0895004272461,"lo2":-89.04439544677734,"nx":28,"ny":28,"refTime":"2022-09-21T21:00:00:Z","depth":"4","parameterNumber":3,"parameterNumberName":"V-component_of_CURRENTS"},"data":[0.0572,0.0638,0.0668,0.0789,0.0877,0.1002,0.1027,0.0977,0.0871,0.0791,0.054,0.0504,0.0065,0.0183,-0.0366,-0.0432,-0.0543,-0.0882,-0.0884,-0.1075,-0.108,-0.1084,-0.1032,0,0,0,0,0,0.0609,0.0625,0.0709,0.0791,0.0943,0.1039,0.1071,0.1052,0.1,0.0851,0.0764,0.0472,0.0041,-0.0216,-0.0391,-0.0502,-0.0799,-0.0711,-0.0864,-0.1078,-0.1083,-0.1031,0,0,0,0,0,0,0.0624,0.0637,0.0719,0.083,0.0961,0.1008,0.1013,0.0973,0.0946,0.0791,0.0664,0.0311,0.0116,-0.0255,-0.0519,-0.0707,-0.0771,-0.0823,-0.0841,-0.0849,-0.0768,-0.0619,-0.0614,0,0,0,0,0,0.0618,0.0687,0.0692,0.083,0.0916,0.0961,0.1015,0.1,0.0907,0.0914,0.0636,0.0364,0.008,-0.0332,-0.0526,-0.0812,-0.1017,-0.1049,-0.1054,-0.1097,-0.101,-0.1029,-0.1022,-0.1103,-0.1104,-0.1104,-0.1104,0,0.0642,0.0662,0.0723,0.077,0.0785,0.0827,0.087,0.0817,0.0808,0.0629,0.0601,0.0358,0.0143,-0.0304,-0.0622,-0.0959,-0.1004,-0.1061,-0.1106,-0.1017,-0.1037,-0.1028,-0.1019,-0.1109,-0.1108,-0.1108,-0.1108,0,0.0651,0.0654,0.0651,0.0639,0.0661,0.0682,0.0693,0.0684,0.0619,0.056,0.0535,0.0249,-0.0027,-0.0298,-0.066,-0.0796,-0.1043,-0.1082,-0.1012,-0.1037,-0.1033,-0.1022,-0.1115,-0.1114,-0.1113,-0.1111,-0.1111,0,0.0627,0.062,0.0618,0.0614,0.0631,0.0546,0.0552,0.0478,0.0399,0.035,0.0171,0.0054,-0.0259,-0.0454,-0.0677,-0.089,-0.0946,-0.1031,-0.106,-0.1068,-0.1057,-0.1098,-0.1089,-0.1164,-0.1164,-0.1163,-0.1163,0,0.0622,0.0565,0.0565,0.0542,0.0454,0.0455,0.042,0.0309,0.027,0.0117,0.0088,-0.0171,-0.0251,-0.0476,-0.0704,-0.0718,-0.0975,-0.102,-0.104,-0.1034,-0.1092,-0.1085,-0.1162,-0.1162,-0.1162,-0.1162,-0.1162,0,0.0565,0.0541,0.0525,0.0444,0.0435,0.0413,0.0338,0.0262,0.0117,0.0035,-0.011,-0.0239,-0.0407,-0.0464,-0.0732,-0.0693,-0.0792,-0.0904,-0.091,-0.0871,-0.0883,-0.0877,-0.0948,-0.0947,-0.0945,-0.0944,-0.0942,0,0.0554,0.0524,0.0481,0.0435,0.0407,0.0334,0.0277,0.0172,0.0068,-0.004,-0.0205,-0.0329,-0.0425,-0.0479,-0.0594,-0.0762,-0.0816,-0.0758,-0.0923,-0.0926,-0.0836,-0.0893,-0.0867,-0.092,-0.0923,-0.0925,-0.0927,0,0.0548,0.0485,0.0496,0.0465,0.0383,0.0344,0.0265,0.0164,0.0122,-0.0056,-0.0143,-0.0366,-0.0431,-0.0514,-0.0616,-0.0701,-0.0781,-0.0741,-0.0747,-0.0725,-0.0939,-0.0872,-0.0879,-0.0853,-0.0856,-0.0858,-0.0911,0,0.0498,0.0481,0.0479,0.0428,0.0382,0.0346,0.0259,0.0184,0.0108,0.0014,-0.0164,-0.0323,-0.0468,-0.0541,-0.0597,-0.0719,-0.0716,-0.0763,-0.0733,-0.0783,-0.0798,-0.0809,-0.068,-0.068,-0.0681,-0.0681,0,0,0.0506,0.0487,0.0457,0.0429,0.0403,0.0335,0.0301,0.0221,0.0069,0.0014,-0.0015,-0.0306,-0.0412,-0.0561,-0.0589,-0.0659,-0.0693,-0.0632,-0.076,-0.0768,-0.0777,-0.0793,-0.0803,-0.0682,-0.0682,-0.0682,-0.0682,0,0.0493,0.0486,0.0478,0.0433,0.0375,0.0322,0.0312,0.0209,0.0152,0.0013,-0.0072,-0.0195,-0.0392,-0.0483,-0.0553,-0.0654,-0.0692,-0.0702,-0.0666,-0.0761,-0.0769,-0.0776,-0.0793,-0.0802,-0.0684,-0.0684,-0.0683,0,0.0485,0.0461,0.0458,0.0398,0.036,0.0315,0.0285,0.0233,0.0172,0.0073,-0.005,-0.0166,-0.0297,-0.0434,-0.05,-0.0481,-0.0663,-0.0629,-0.063,-0.0616,-0.0714,-0.0723,-0.0731,-0.0621,-0.0621,-0.062,0,0,0.0473,0.0465,0.0407,0.0392,0.038,0.0303,0.0268,0.0223,0.0135,0.0093,-0.0016,-0.0131,-0.0256,-0.0315,-0.0444,-0.0563,-0.0593,-0.0617,-0.062,-0.0622,-0.0609,-0.0707,-0.0717,-0.0617,-0.0617,-0.0617,0,0,0.0463,0.0427,0.0413,0.0401,0.0339,0.0254,0.0238,0.0193,0.0088,0.0086,-0.0019,-0.0052,-0.0196,-0.0257,-0.0209,-0.0426,-0.0419,-0.0433,-0.0369,-0.0374,-0.0377,-0.0328,-0.0243,0,0,0,0,0,0.0434,0.0435,0.0423,0.0416,0.0334,0.026,0.0241,0.0195,0.0194,0.0161,0.0064,0.003,-0.0251,-0.0211,-0.0249,-0.0298,-0.0583,-0.0589,-0.0595,-0.0545,-0.055,-0.0553,0,0,0,0,0,0,0.0431,0.0423,0.0423,0.0348,0.0329,0.026,0.0254,0.0237,0.0197,0.0194,0.0048,0.0025,-0.0047,-0.0198,-0.023,-0.0275,-0.0232,-0.0586,-0.0591,-0.0595,-0.0547,-0.055,-0.0553,0,0,0,0,0,0.0429,0.0422,0.032,0.0345,0.0329,0.0265,0.0255,0.0242,0.0195,0.0082,0.0059,0.017,-0.0047,-0.008,-0.0217,-0.0258,-0.021,-0.0222,-0.0589,-0.0593,-0.0597,-0.0549,0,0,0,0,0,0,0.0427,0.0374,0.0313,0.0304,0.0371,0.0266,0.0253,0.0246,0.0082,0.0064,0.02,0.0199,-0.0047,-0.0073,-0.0098,-0.0247,-0.0192,-0.0205,-0.0212,-0.0592,-0.0595,-0.0598,0,0,0,0,0,0,0.0378,0.0367,0.0308,0.0344,0.0338,0.0268,0.0257,0.0128,0.0079,0.0204,0.0202,0.0201,-0.0016,-0.0068,-0.0088,-0.0289,-0.0179,-0.019,-0.0198,-0.0203,-0.0595,-0.0597,0,0,0,0,0,0,0.0371,0.0362,0.0345,0.0341,0.0335,0.022,0.0147,0.0055,0.0152,0.0209,0.0157,0.0159,-0.0011,-0.0032,-0.0081,-0.0273,-0.0285,-0.0179,-0.0187,-0.0192,-0.0196,0,0,0,0,0,0,0,0.0366,0.0458,0.0383,0.0338,0.0333,0.0224,0.022,0.0216,0.0152,0.0154,0.0156,0.0158,-0.0113,-0.0125,-0.0138,-0.026,0,0,-0.0178,-0.0183,0,0,0,0,0,0,0,0,0.046,0.0459,0.0383,0.0382,0.0381,0.0223,0.022,0.0217,0.0153,0.0154,0.0156,0.0158,-0.0116,-0.0126,-0.0137,0,0,0,0,0,0,0,0,0,0,0,0,0,0,0,0.0382,0.0382,0,0.0223,0.022,0.0218,0.0153,0.0154,0.0156,0.0157,-0.0119,-0.0128,-0.0136,0,0,0,0,0,0,0,0,0,0,0,0,0,0,0,0,0,0,0,0,0,0,0,0,0,0,0,0,0,0,0,0,0,0,0,0,0,0,0,0,0,0,0,0,0,0,0,0,0,0,0,0,0,0,0,0,0,0,0,0,0,0,0,0,0,0,0,0,0]}]]]